カタログに戻る

STARLINK-4260

運用中通信VLEO
NORAD 52986·PAYLOAD·🇺🇸 United States

打ち上げ Jul 7, 2022 から Cape Canaveral Space Force Station

Loading…

次のパス (今後24時間)

TLE

最新Source: CelesTrak SupGP

元期: Sep 15, 2026, 02:06 UTC

1 52986C 22076A   26258.08798611  .00030907  00000+0  88432-3 0  2584
2 52986  53.1572 309.3182 0001195  95.1901 197.8189 15.35381501    18

AllMySatでSTARLINK-4260をリアルタイム追跡

Download on the App Store